This is the latest recevied weather packets stored in our database for station/object K9NZF-1. If no packets are shown the sender has not sent any weather packets the latest 10 day(s).
| Time | Temp. | Humidity | Pressure | Rain* | Wind** | Luminosity | Snow |
|---|---|---|---|---|---|---|---|
| 1778264912 | 17.78° C | 59% | 1010.2 hPa | 0 mm | - | 475 W/m² | - |
| 1778264854 | 17.78° C | 57% | 1010.2 hPa | 0 mm | - | 475 W/m² | - |
| 1778264791 | 17.78° C | 58% | 1010.1 hPa | 0 mm | - | 1055 W/m² | - |
| 1778264730 | 17.78° C | 59% | 1010.1 hPa | 0 mm | - | 1055 W/m² | - |
| 1778264667 | 17.78° C | 59% | 1010.1 hPa | 0 mm | - | 1055 W/m² | - |
| 1778264609 | 17.78° C | 60% | 1010.1 hPa | 0 mm | - | 1055 W/m² | - |
| 1778264547 | 17.22° C | 59% | 1010.2 hPa | 0 mm | - | 1055 W/m² | - |
| 1778264487 | 17.22° C | 58% | 1010.1 hPa | 0 mm | - | 475 W/m² | - |
| 1778264422 | 17.22° C | 57% | 1010.2 hPa | 0 mm | - | 475 W/m² | - |
| 1778264360 | 17.22° C | 59% | 1010.2 hPa | 0 mm | - | 411 W/m² | - |
| 1778264300 | 17.22° C | 58% | 1010.2 hPa | 0 mm | - | 352 W/m² | - |
| 1778264239 | 17.22° C | 58% | 1010.2 hPa | 0 mm | - | 388 W/m² | - |
| 1778264177 | 17.22° C | 60% | 1010.2 hPa | 0 mm | - | 369 W/m² | - |
| 1778264116 | 17.22° C | 59% | 1010.1 hPa | 0 mm | - | 403 W/m² | - |
| 1778264053 | 17.22° C | 56% | 1010.1 hPa | 0 mm | - | 459 W/m² | - |
| 1778263995 | 17.22° C | 56% | 1010.2 hPa | 0 mm | - | 374 W/m² | - |
| 1778263933 | 17.22° C | 56% | 1010.1 hPa | 0 mm | - | 360 W/m² | - |
| 1778263872 | 17.22° C | 55% | 1010.2 hPa | 0 mm | - | 362 W/m² | - |
| 1778263814 | 17.22° C | 55% | 1010 hPa | 0 mm | - | 385 W/m² | - |
| 1778263755 | 17.22° C | 57% | 1010.1 hPa | 0 mm | - | 392 W/m² | - |
| 1778263693 | 17.22° C | 58% | 1010 hPa | 0 mm | - | 396 W/m² | - |
| 1778263633 | 17.22° C | 57% | 1010.1 hPa | 0 mm | - | 404 W/m² | - |
| 1778263571 | 17.22° C | 58% | 1010.1 hPa | 0 mm | - | 424 W/m² | - |
| 1778263511 | 17.22° C | 58% | 1010.1 hPa | 0 mm | - | 387 W/m² | - |
| 1778263445 | 17.22° C | 59% | 1010.1 hPa | 0 mm | - | 652 W/m² | - |
* Rain latest hour (hover to see other rain measurements)
** Current wind speed in m/s (hover to see current wind gust speed)